User: anonymous   Login
Location: SAPM � Hemmingford
(45.0500°N, 73.5833°W)
Time: 09:19:50
(UTC-05:00)
Language:

Iridium 75 - Orbit

View from above orbital plane
View from above orbital plane
View from above satellite
View from above satellite

Ground track
Ground track

The orbit data is extracted from the following two-line orbital elements,

1 25346U 98032E   18053.60011029 +.00000127 +00000-0 +38117-4 0  9992
2 25346 086.3965 119.5154 0002173 096.6978 263.4465 14.34220879035269
Epoch (UTC): 22 February 2018 14:24:09
Eccentricity: 0.0002173
inclination: 86.3965°
perigee height: 776 km
apogee height: 779 km
right ascension of ascending node: 119.5154°
argument of perigee: 96.6978°
revolutions per day: 14.34220879
mean anomaly at epoch: 263.4465°
orbit number at epoch: 3526

The dashed part of the orbit path shows where the satellite is in the earth's shadow,  

DLR